Alice Springs, Australia

5:16 PM ACST on December 10, 2019 (GMT +0930)
Alice Springs

Weather History for YBAS - August, 2019

Change the Weather History Date:

Saturday, August 17, 2019

  Actual Average Record
Temperature  
Mean Temperature 63 °F -  
Max Temperature 86 °F 77 °F 86 °F (2019)
Min Temperature 40 °F 47 °F 32 °F (1999)
Degree Days  
Heating Degree Days 2    
Growing Degree Days 13 (Base 50)    
Moisture  
Dew Point 14 °F    
Average Humidity 13    
Maximum Humidity 27    
Minimum Humidity 4    
Precipitation  
Precipitation 0.00 in 0.01 in - ()
Sea Level Pressure  
Sea Level Pressure 30.02 in    
Wind  
Wind Speed 6 mph ()    
Max Wind Speed 22 mph    
Max Gust Speed 30 mph    
Visibility 6.2 miles    
Events      
Averages and records for this station are not official NWS values.
T = Trace of Precipitation, MM = Missing Value Source: Averaged Metar Reports

Daily Weather History Graph

Daily Weather History Graph

Search for Another Location

Airport or City:

Astronomy

Aug. 17, 2019 Rise Set
Actual Time 6:59 AM ACST 6:18 PM ACST
Civil Twilight 6:36 AM ACST 6:41 PM ACST
Nautical Twilight 6:09 AM ACST 7:08 PM ACST
Astronomical Twilight 5:43 AM ACST 7:34 PM ACST
Moon 7:46 PM ACST (8/17) 8:05 AM ACST (8/17)
Length of Visible Light 12h 05m
Length of Day
11h 18m
Full, 98% of the Moon is Illuminated
Aug 17
Full
Aug 24
Last Quarter
Aug 30
New
Sep 6
First Quarter
Sep 14
Full

Hourly Weather History & Observations

Time (ACST) Temp. Windchill Dew Point Humidity Pressure Visibility Wind Dir Wind Speed Gust Speed Precip Events Conditions
12:00 AM 50 °F - 11 °F 10% 30.05 in - Calm Calm - -   Clear
12:00 AM 50.0 °F - 10.4 °F 20% 30.06 in 6.2 mi Calm Calm - N/A   Unknown
12:30 AM 50 °F - 9 °F 9% 30.05 in - West 6.9 mph - -  
12:30 AM 50.0 °F - 8.6 °F 19% 30.06 in 6.2 mi West 6.9 mph - N/A   Unknown
1:00 AM 50.0 °F - 8.6 °F 19% 30.06 in 6.2 mi West 8.1 mph - N/A   Unknown
1:30 AM 48.2 °F - 8.6 °F 20% 30.06 in 6.2 mi Calm Calm - N/A   Unknown
2:00 AM 46.4 °F - 10.4 °F 23% 30.06 in 6.2 mi Calm Calm - N/A   Unknown
2:30 AM 49 °F - 10 °F 10% 30.03 in - NNW 5.8 mph - -  
2:30 AM 48.2 °F - 10.4 °F 22% 30.04 in 6.2 mi NNW 5.8 mph - N/A   Unknown
3:00 AM 49 °F - 11 °F 11% 30.02 in - NW 5.8 mph - -   Clear
3:00 AM 50.0 °F - 10.4 °F 20% 30.04 in 6.2 mi NW 5.8 mph - N/A   Unknown
3:30 AM 45 °F - 9 °F 12% 30.01 in - Calm Calm - -  
3:30 AM 44.6 °F - 8.6 °F 23% 30.04 in 6.2 mi Calm Calm - N/A   Unknown
4:00 AM 48.2 °F - 10.4 °F 22% 30.01 in 6.2 mi Calm Calm - N/A   Unknown
4:30 AM 44.6 °F - 10.4 °F 25% 30.01 in 6.2 mi Calm Calm - N/A   Unknown
5:00 AM 44.6 °F 42.2 °F 10.4 °F 25% 30.01 in 6.2 mi NW 4.6 mph - N/A   Unknown
5:30 AM 45 °F - 11 °F 14% 30.01 in - NNW 3.5 mph - -  
5:30 AM 44.6 °F 43.1 °F 10.4 °F 25% 30.01 in 6.2 mi NNW 3.5 mph - N/A   Unknown
6:00 AM 43 °F - 9 °F 13% 30.01 in - WNW 4.6 mph - -   Clear
6:00 AM 42.8 °F 40.1 °F 8.6 °F 25% 30.04 in 6.2 mi WNW 4.6 mph - N/A   Unknown
6:30 AM 41 °F - 9 °F 14% 30.02 in - Calm Calm - -  
6:30 AM 41.0 °F - 8.6 °F 26% 30.04 in 6.2 mi Calm Calm - N/A   Unknown
7:00 AM 44.6 °F 43.1 °F 12.2 °F 27% 30.04 in 6.2 mi North 3.5 mph - N/A   Unknown
7:30 AM 46.4 °F 45.2 °F 10.4 °F 23% 30.04 in 6.2 mi North 3.5 mph - N/A   Unknown
7:59 AM 55.4 °F - 15.8 °F 21% 30.06 in 6.2 mi North 2.3 mph - N/A   Unknown
8:00 AM 57.2 °F - 15.8 °F 20% 30.06 in 6.2 mi NNE 2.3 mph - N/A   Unknown
8:30 AM 63 °F - 18 °F 8% 30.05 in - NE 1.2 mph - -  
8:30 AM 62.6 °F - 17.6 °F 18% 30.06 in 6.2 mi NE 1.2 mph - N/A   Unknown
9:00 AM 69 °F - 16 °F 6% 30.05 in - Calm Calm - -   Clear
9:00 AM 68.0 °F - 15.8 °F 13% 30.06 in 6.2 mi Calm Calm - N/A   Unknown
9:30 AM 72 °F - 16 °F 5% 30.06 in - North 8.1 mph - -  
9:30 AM 71.6 °F - 15.8 °F 12% 30.06 in 6.2 mi North 8.1 mph - N/A   Unknown
10:00 AM 73.4 °F - 15.8 °F 11% 30.06 in 6.2 mi North 8.1 mph - N/A   Unknown
10:30 AM 77.0 °F - 19.4 °F 12% 30.06 in 6.2 mi North 6.9 mph - N/A   Unknown
11:00 AM 80.6 °F - 19.4 °F 10% 30.04 in 6.2 mi NNW 11.5 mph - N/A   Unknown
11:30 AM 82.4 °F - 17.6 °F 9% 30.04 in 6.2 mi NNW 17.3 mph - N/A   Unknown
12:00 PM 82 °F - 18 °F 4% 30.01 in - NNW 13.8 mph - -   Clear
12:00 PM 82.4 °F - 17.6 °F 9% 30.04 in 6.2 mi NNW 13.8 mph - N/A   Unknown
12:30 PM 82 °F - 18 °F 4% 30.00 in - NNW 15.0 mph - -  
12:30 PM 82.4 °F - 17.6 °F 9% 30.01 in 6.2 mi NNW 15.0 mph - N/A   Unknown
1:00 PM 84.2 °F - 15.8 °F 8% 30.01 in 6.2 mi NW 13.8 mph - N/A   Unknown
1:30 PM 82.4 °F - 17.6 °F 9% 30.01 in 6.2 mi NW 17.3 mph - N/A   Unknown
1:49 PM 84.2 °F - 19.4 °F 9% 29.98 in 6.2 mi WNW 17.3 mph 29.9 mph N/A   Unknown
2:02 PM 84.2 °F - 19.4 °F 9% 29.98 in 6.2 mi WNW 21.9 mph - N/A   Unknown
2:30 PM 84 °F - 19 °F 4% 29.96 in - WNW 17.3 mph - -  
2:30 PM 84.2 °F - 19.4 °F 9% 29.98 in 6.2 mi WNW 17.3 mph - N/A   Unknown
3:00 PM 85 °F - 20 °F 4% 29.94 in - NW 9.2 mph - -   Clear
3:00 PM 84.2 °F - 19.4 °F 9% 29.95 in 6.2 mi NW 9.2 mph - N/A   Unknown
3:30 PM 85 °F - 18 °F 4% 29.94 in - West 15.0 mph - -  
3:30 PM 86.0 °F - 17.6 °F 8% 29.95 in 6.2 mi West 15.0 mph - N/A   Unknown
4:00 PM 84.2 °F - 15.8 °F 8% 29.95 in 6.2 mi WNW 12.7 mph - N/A   Unknown
4:30 PM 84.2 °F - 15.8 °F 8% 29.95 in 6.2 mi NNW 12.7 mph - N/A   Unknown
5:00 PM 84.2 °F - 15.8 °F 8% 29.98 in 6.2 mi West 16.1 mph - N/A   Unknown
5:30 PM 83 °F - 16 °F 4% 29.96 in - WNW 12.7 mph - -  
5:30 PM 82.4 °F - 15.8 °F 8% 29.98 in 6.2 mi WNW 12.7 mph - N/A   Unknown
6:00 PM 81 °F - 17 °F 4% 29.96 in - WNW 10.4 mph - -   Clear
6:00 PM 80.6 °F - 17.6 °F 10% 29.98 in 6.2 mi WNW 10.4 mph - N/A   Unknown
6:30 PM 76 °F - 16 °F 4% 29.97 in - NW 9.2 mph - -  
6:30 PM 77.0 °F - 15.8 °F 10% 29.98 in 6.2 mi NW 9.2 mph - N/A   Unknown
7:00 PM 75.2 °F - 15.8 °F 11% 29.98 in 6.2 mi NW 8.1 mph - N/A   Unknown
7:30 PM 71.6 °F - 14.0 °F 11% 30.01 in 6.2 mi WNW 5.8 mph - N/A   Unknown
8:00 PM 71.6 °F - 15.8 °F 12% 30.01 in 6.2 mi WNW 4.6 mph - N/A   Unknown
8:30 PM 66.2 °F - 14.0 °F 13% 30.01 in 6.2 mi WNW 4.6 mph - N/A   Unknown
9:00 PM 64 °F - 14 °F 6% 30.01 in - West 4.6 mph - -   Clear
9:00 PM 64.4 °F - 14.0 °F 14% 30.04 in 6.2 mi West 4.6 mph - N/A   Unknown
9:30 PM 64 °F - 14 °F 6% 30.01 in - West 5.8 mph - -  
9:30 PM 64.4 °F - 14.0 °F 14% 30.04 in 6.2 mi West 5.8 mph - N/A   Unknown
10:30 PM 60.8 °F - 15.8 °F 17% 30.04 in 6.2 mi West 8.1 mph - N/A   Unknown
11:30 PM 60 °F - 17 °F 9% 30.04 in - West 8.1 mph - -  
11:30 PM 60.8 °F - 15.8 °F 17% 30.04 in 6.2 mi West 8.1 mph - N/A   Unknown